TimeCST,TemperatureF,Dew PointF,Humidity,Sea Level PressureIn,VisibilityMPH,Wind Direction,Wind SpeedMPH,Gust SpeedMPH,PrecipitationIn,Events,Conditions,WindDirDegrees,DateUTC
12:00 AM,-45,-52,46,30.32,1,Calm,Calm,,,,Mist,,2013-02-27 06:00:00
12:00 AM,-45.4,-52.6,66,30.32,1.5,Calm,Calm,-,N/A,,Overcast,0,2013-02-27 06:00:00
1:00 AM,-45.4,-52.6,66,30.34,1.5,Calm,Calm,-,N/A,,Overcast,0,2013-02-27 07:00:00
2:45 AM,-47.2,-9999,N/A,-9999,4.0,Calm,Calm,-,N/A,,Ice Crystals,0,2013-02-27 08:45:00
3:00 AM,-47.2,-52.6,73,30.39,4.0,Calm,Calm,-,N/A,,Ice Crystals,0,2013-02-27 09:00:00
4:00 AM,-47.2,-52.6,73,30.41,4.0,ESE,2.3,-,N/A,,Ice Crystals,110,2013-02-27 10:00:00
5:00 AM,-47.2,-52.6,73,30.43,6.0,Calm,Calm,-,N/A,,Ice Crystals,0,2013-02-27 11:00:00
6:00 AM,-51,,,30.44,15,Calm,Calm,,,Snow,Snow,,2013-02-27 12:00:00
6:00 AM,-50.8,-9999,N/A,30.44,15.0,Calm,Calm,-,N/A,,Partly Cloudy,0,2013-02-27 12:00:00
7:00 AM,-49.0,-9999,N/A,30.45,15.0,Calm,Calm,-,N/A,,Partly Cloudy,0,2013-02-27 13:00:00
8:00 AM,-50.8,-9999,N/A,30.47,15.0,Calm,Calm,-,N/A,,Partly Cloudy,0,2013-02-27 14:00:00
9:00 AM,-52.6,-9999,N/A,30.47,15.0,Calm,Calm,-,N/A,,Partly Cloudy,0,2013-02-27 15:00:00
10:00 AM,-52.6,-9999,N/A,30.49,15.0,Calm,Calm,-,N/A,,Mostly Cloudy,0,2013-02-27 16:00:00
11:00 AM,-50.8,-9999,N/A,30.50,15.0,Calm,Calm,-,N/A,,Mostly Cloudy,0,2013-02-27 17:00:00
12:00 PM,-51,,,30.51,15,Calm,Calm,,,Snow,Snow,,2013-02-27 18:00:00
12:00 PM,-50.8,-9999,N/A,30.51,15.0,Calm,Calm,-,N/A,,Mostly Cloudy,0,2013-02-27 18:00:00
1:00 PM,-50.8,-9999,N/A,30.51,15.0,Calm,Calm,-,N/A,,Scattered Clouds,0,2013-02-27 19:00:00
2:00 PM,-50.8,-9999,N/A,30.52,15.0,Calm,Calm,-,N/A,,Partly Cloudy,0,2013-02-27 20:00:00
3:00 PM,-50.8,-9999,N/A,30.53,15.0,Calm,Calm,-,N/A,,Partly Cloudy,0,2013-02-27 21:00:00
4:00 PM,-52.6,-9999,N/A,30.54,15.0,Calm,Calm,-,N/A,,Partly Cloudy,0,2013-02-27 22:00:00
5:00 PM,-50.8,-9999,N/A,30.55,15.0,Calm,Calm,-,N/A,,Partly Cloudy,0,2013-02-27 23:00:00
6:00 PM,-52,,,30.55,15,Calm,Calm,,,Snow,Snow,,2013-02-28 00:00:00
6:00 PM,-52.6,-9999,N/A,30.55,15.0,Calm,Calm,-,N/A,,Partly Cloudy,0,2013-02-28 00:00:00
7:00 PM,-54.4,-9999,N/A,30.56,15.0,Calm,Calm,-,N/A,,Partly Cloudy,0,2013-02-28 01:00:00
8:00 PM,-56.2,-9999,N/A,30.55,15.0,Calm,Calm,-,N/A,,Clear,0,2013-02-28 02:00:00
9:00 PM,-54.4,-9999,N/A,30.55,15.0,Calm,Calm,-,N/A,,Clear,0,2013-02-28 03:00:00